Aérodrome :
LOGIN :

S'inscrire | Disclaimer

   EN    FR    IT 

 










Légende :    VFR   VFR Marginal   IFR   IFR Intensif   IFR Très Intensif
Visi : 
Plafond : 
>= 8 km
>= 3000ft
5 à 8 km
1000 à 3000 ft
1500m à 5 km
500 à 1000 ft
800 à 1500m
200 à 500 ft
< 800m
< 200 ft
Symboles :   Orages  Brouillard  Fortes neiges  Fortes précipitations  Vent > 20 kt
SIGMETs :   Divers  Orages  Givrage  Turbulence  Onde Orograph.  Cendres Volcan.







- Altitude de l'aérodrome : 26 ft


ETNT - Wittmundhaven AB

DERNIER METAR :
  • 182120Z AUTO 09004KT 8000 // ////// 11/10 Q1013 ///

METARs EXPIRÉS :
  • 182020Z AUTO 10003KT 9999 // ////// 11/10 Q1013 ///
  • 181920Z 10006KT 8000 SCT035 BKN240 11/10 Q1013 BLU+

TAF TAF ETNT
Valide du 18 à 20h jusqu'au 19 à 05h UTC


181900Z 1820/1905 12005KT 9999 NSW SCT040 BKN280
BECMG 1823/1901 09003KT 3000 BR SCT040 BKN280
TEMPO 1901/1905 VRB03KT 0500 FG SCT280 CANCEL BY ETGL
Pas de NOTAMs connus pour ce terrain.



MET'MAP, la Météo Aéronautique d'un coup d'oeil ! - Copyright ORBIFLY Décembre 2007 - Disclaimer

ORBIFLY MET'MAP TEAM :

Programmation & Développement : Alexandra Zaïnal
Conception & Développement : Baudouin d'Aumeries
Co-Programmation & Développement : Marc-Olivier Méhu
Soutien technique & logistique : Manuel Goepfert

Contact : metmap@orbifly.com




SOURCES & CREDITS :

   NOAA